Weather History for Pellston, MI

Change the Weather History Date:

Monday, September 30, 2013

  Actual Average Record
Temperature  
Mean Temperature 50 °F -  
Max Temperature 70 °F 62 °F 82 °F (2002)
Min Temperature 32 °F 41 °F 23 °F (1993)
Degree Days  
Heating Degree Days 14    
Moisture  
Dew Point 39 °F    
Average Humidity 84    
Maximum Humidity 100    
Minimum Humidity 33    
Precipitation  
Precipitation 0.00 in - - ()
Sea Level Pressure  
Sea Level Pressure 29.98 in    
Wind  
Wind Speed 1 mph (SSW)    
Max Wind Speed 8 mph    
Max Gust Speed -    
Visibility 6 miles    
Events Fog    
Averages and records for this station are not official NWS values.
T = Trace of Precipitation, MM = Missing Value Source: NWS Daily Summary

Daily Weather History Graph

Daily Weather History Graph

Search for Another Location

Airport:

Trip Planner

Search our weather history database for the weather conditions in past years. The results will help you decide how hot, cold, wet, or windy it might be!

Date:

Astronomy

Sep. 30, 2013 Rise Set
Actual Time 7:36 AM EDT 7:20 PM EDT
Civil Twilight 7:06 AM EDT 7:50 PM EDT
Nautical Twilight 6:32 AM EDT 8:24 PM EDT
Astronomical Twilight 5:57 AM EDT 8:59 PM EDT
Moon 3:01 AM EDT (9/30) 5:00 PM EDT (9/30)
Length of Visible Light 12h 43m
Length of Day
11h 44m
Waning Crescent, 19% of the Moon is Illuminated
Sep 30
Waning Crescent
Oct 4
New
Oct 11
First Quarter
Oct 18
Full
Oct 26
Last Quarter

Hourly Weather History & Observations

Time (EDT) Temp. Dew Point Humidity Pressure Visibility Wind Dir Wind Speed Gust Speed Precip Events Conditions
12:54 AM 39.0 °F 37.0 °F 93% 30.03 in 10.0 mi Calm Calm - N/A   Clear
12:59 AM 39.2 °F 37.4 °F 93% 30.02 in 1.8 mi Calm Calm - N/A   Clear
1:01 AM 37.4 °F 37.4 °F 100% 30.02 in 1.0 mi Calm Calm - N/A   Mist
1:08 AM 39.2 °F 37.4 °F 93% 30.02 in 0.5 mi Calm Calm - N/A Fog Fog
1:18 AM 37.4 °F 37.4 °F 100% 30.02 in 2.0 mi Calm Calm - N/A   Mostly Cloudy
1:27 AM 37.4 °F 37.4 °F 100% 30.02 in 3.0 mi Calm Calm - N/A   Mostly Cloudy
1:32 AM 37.4 °F 37.4 °F 100% 30.02 in 1.8 mi Calm Calm - N/A   Mostly Cloudy
1:42 AM 37.4 °F 35.6 °F 93% 30.02 in 1.2 mi Calm Calm - N/A   Scattered Clouds
1:54 AM 37.0 °F 36.0 °F 96% 30.03 in 1.2 mi Calm Calm - N/A   Clear
2:13 AM 37.4 °F 35.6 °F 93% 30.02 in 3.0 mi Calm Calm - N/A   Clear
2:24 AM 35.6 °F 35.6 °F 100% 30.02 in 2.0 mi Calm Calm - N/A   Partly Cloudy
2:40 AM 35.6 °F 35.6 °F 100% 30.02 in 10.0 mi Calm Calm - N/A   Partly Cloudy
2:54 AM 36.0 °F 34.0 °F 93% 30.02 in 8.0 mi Calm Calm - N/A   Scattered Clouds
3:32 AM 35.6 °F 33.8 °F 93% 30.01 in 3.0 mi Calm Calm - N/A   Mostly Cloudy
3:54 AM 35.1 °F 33.1 °F 92% 30.01 in 9.0 mi Calm Calm - N/A   Scattered Clouds
4:21 AM 33.8 °F 33.8 °F 100% 30.00 in 4.0 mi Calm Calm - N/A   Mostly Cloudy
4:42 AM 33.8 °F 33.8 °F 100% 30.00 in 1.8 mi Calm Calm - N/A   Mostly Cloudy
4:54 AM 34.0 °F 33.1 °F 96% 30.01 in 3.0 mi Calm Calm - N/A   Mostly Cloudy
5:07 AM 33.8 °F 32.0 °F 93% 30.00 in 1.8 mi Calm Calm - N/A   Overcast
5:17 AM 33.8 °F 32.0 °F 93% 30.00 in 1.5 mi Calm Calm - N/A   Overcast
5:25 AM 33.8 °F 33.8 °F 100% 30.01 in 2.5 mi Calm Calm - N/A   Overcast
5:45 AM 33.8 °F 32.0 °F 93% 30.01 in 7.0 mi Calm Calm - N/A   Mostly Cloudy
5:52 AM 33.8 °F 32.0 °F 93% 30.01 in 10.0 mi Calm Calm - N/A   Scattered Clouds
5:54 AM 33.1 °F 32.0 °F 96% 30.02 in 10.0 mi Calm Calm - N/A   Partly Cloudy
6:54 AM 32.0 °F 30.9 °F 96% 30.03 in 10.0 mi Calm Calm - N/A   Clear
7:54 AM 32.0 °F 30.0 °F 92% 30.03 in 10.0 mi Calm Calm - N/A   Clear
8:40 AM 37.4 °F 35.6 °F 93% 30.00 in 10.0 mi Calm Calm - N/A   Scattered Clouds
8:49 AM 39.2 °F 37.4 °F 93% 30.00 in 8.0 mi Calm Calm - N/A   Mostly Cloudy
8:54 AM 39.9 °F 39.0 °F 97% 30.01 in 1.8 mi Calm Calm - N/A   Mostly Cloudy
9:01 AM 41.0 °F 39.2 °F 93% 29.99 in 0.2 mi Calm Calm - N/A Fog Fog
9:14 AM 44.6 °F 42.8 °F 93% 29.99 in 1.0 mi Calm Calm - N/A   Mist
9:17 AM 44.6 °F 42.8 °F 93% 29.99 in 3.0 mi Calm Calm - N/A   Mostly Cloudy
9:30 AM 46.4 °F 44.6 °F 93% 29.99 in 10.0 mi Calm Calm - N/A   Scattered Clouds
9:54 AM 51.1 °F 46.0 °F 83% 30.00 in 10.0 mi SSE 4.6 mph - N/A   Clear
10:54 AM 59.0 °F 45.0 °F 60% 29.98 in 10.0 mi SE 5.8 mph - N/A   Clear
11:54 AM 64.9 °F 43.0 °F 45% 29.98 in 10.0 mi SE 6.9 mph - N/A   Clear
12:54 PM 66.0 °F 39.9 °F 38% 29.97 in 10.0 mi SW 6.9 mph - N/A   Clear
1:54 PM 68.0 °F 42.1 °F 39% 29.94 in 10.0 mi Variable 4.6 mph - N/A   Clear
2:54 PM 69.1 °F 39.0 °F 33% 29.93 in 10.0 mi South 8.1 mph - N/A   Clear
3:54 PM 69.1 °F 42.1 °F 38% 29.91 in 10.0 mi SW 6.9 mph - N/A   Clear
4:54 PM 69.1 °F 43.0 °F 39% 29.89 in 10.0 mi SW 5.8 mph - N/A   Clear
5:54 PM 68.0 °F 46.0 °F 45% 29.88 in 10.0 mi SSW 5.8 mph - N/A   Clear
6:54 PM 64.9 °F 48.9 °F 56% 29.90 in 10.0 mi WSW 4.6 mph - N/A   Clear
7:54 PM 55.0 °F 48.9 °F 80% 29.89 in 10.0 mi Calm Calm - N/A   Clear
8:54 PM 54.0 °F 50.0 °F 86% 29.89 in 10.0 mi Calm Calm - N/A   Clear
9:54 PM 54.0 °F 50.0 °F 86% 29.88 in 10.0 mi Calm Calm - N/A   Clear
10:54 PM 53.1 °F 50.0 °F 89% 29.88 in 10.0 mi Calm Calm - N/A   Clear
11:54 PM 54.0 °F 48.0 °F 80% 29.87 in 10.0 mi Calm Calm - N/A   Clear